Regional Weather Roundup
Issued by NWS Green Bay, WI

Home | Current Version | Previous Version | Graphics & Text | Print | Product List | Glossary Off
Versions: 1 2 3 4 5 6 7 8 9 10 11 12 13 14 15 16 17 18 19 20 21 22 23 24 25 26 27 28 29 30 31 32 33 34 35 36 37 38 39 40 41 42 43 44 45 46 47 48 49 50

117
ASUS43 KGRB 060300
RWRGRB

NORTH-CENTRAL AND NORTHEAST WISCONSIN REGIONAL WEATHER ROUNDUP
NATIONAL WEATHER SERVICE GREEN BAY WI
900 PM CST FRI FEB 05 2016

WIZ005-009-010>012-018-019-060400-
NORTH CENTRAL WISCONSIN

CITY           SKY/WX    TMP DP  RH WIND       PRES   REMARKS
IRONWOOD       CLOUDY    25  10  54 SW15      30.08S
MANITOWISH WTR NOT AVBL
ARBOR VITAE    NOT AVBL
EAGLE RIVER    NOT AVBL
LAND O LAKES   NOT AVBL
RHINELANDER    CLOUDY    21  12  68 SW13      30.14F WCI   9
PHILLIPS       NOT AVBL
ANTIGO         NOT AVBL
TOMAHAWK       NOT AVBL
MERRILL        NOT AVBL
$$

WIZ013-073-060400-
NORTHEAST WISCONSIN

CITY           SKY/WX    TMP DP  RH WIND       PRES   REMARKS
IRON MOUNTAIN  CLOUDY    25   9  50 SW8       30.14F
MARINETTE      CLOUDY    21  14  73 SW9       30.23F
$$

WIZ017-030-035>037-045-060400-
CENTRAL WISCONSIN

CITY           SKY/WX    TMP DP  RH WIND       PRES   REMARKS
MEDFORD        NOT AVBL
WAUSAU         CLOUDY    22  13  68 SW7       30.19S
MOSINEE        MOCLDY    19  16  86 S6        30.22S
MARSHFIELD     CLOUDY    21  12  68 SW8       30.20S
WISC RAPIDS    CLOUDY    22  14  71 SW5       30.24F
STEVENS POINT  NOT AVBL
WAUPACA        NOT AVBL
SHAWANO        NOT AVBL
CLINTONVILLE   NOT AVBL
WAUTOMA        NOT AVBL
$$

WIZ038-039-048-051-060400-
FOX VALLEY

CITY           SKY/WX    TMP DP  RH WIND       PRES   REMARKS
NWS GREEN BAY  CLOUDY    22  16  78 S7        30.26F
APPLETON       CLOUDY    21  16  79 S8        30.23F
OSHKOSH        CLOUDY    22  15  75 S8        30.26F
FOND DU LAC    CLOUDY    24  15  68 S6        30.27F
$$

WIZ022-050-052-060400-
EAST CENTRAL WISCONSIN

CITY           SKY/WX    TMP DP  RH WIND       PRES   REMARKS
EPHRAIM        NOT AVBL
STURGEON BAY   CLOUDY    18  10  73 S7        30.26F WCI   8
MANITOWOC      NOT AVBL
SHEBOYGAN      CLOUDY    24  16  71 SW6       30.28F
$$

LMZ563-521-522-541>543-060400-
LAKESHORE

STATION/POSITION TIME  TEMP    WIND        PRES    VSBY  WAVE
                       AIR SEA DIR/SP/G                  HT/PER
                 (UTC) (F)     (DEG/KT/KT) (MB)    (MI)  (FT/S)
SHEBOYGAN LKSHOR 0200   26     250/  9/ 11 1027.2F
KEWAUNEE LKSHORE 0200   22     310/  5/  8 1024.4F
CHAMBERS ISLAND  0200   22     180/  7/ 11 1024.0F
MENOMINEE LKSHOR 0200   21     180/  8     1023.2F
$$




USA.gov is the U.S. government's official web portal to all federal, state and local government web resources and services.